Regional Weather Roundup
Issued by NWS

Home | Current Version | Previous Version | Text Only | Print | Product List | Glossary Off
Versions: 1 2 3 4 5 6 7 8 9 10 11 12 13 14 15 16 17 18 19 20 21 22 23 24 25 26 27 28 29 30 31 32 33 34 35 36 37 38 39 40 41 42 43 44 45 46 47 48 49 50

000
ASUS43 KMPX 260310
RWRMN
WEATHER ROUNDUP FOR MINNESOTA
NATIONAL WEATHER SERVICE TWIN CITIES/CHANHASSEN MN
1000 PM CDT SUN JUN 25 2017


NOTE: "FAIR" INDICATES FEW OR NO CLOUDS BELOW 12,000 FEET WITH NO
SIGNIFICANT WEATHER AND/OR OBSTRUCTIONS TO VISIBILITY. N/A MEANS
CURRENT SKY AND/OR WEATHER CONDITIONS ARE NOT AVAILABLE.

MNZ060>063-068>070-260400-
   Twin Cities Metro

CITY           SKY/WX    TMP DP  RH WIND       PRES   REMARKS
TWIN CITIES    PTCLDY    63  41  44 W6        30.13R
ST PAUL        PTCLDY    61  40  45 W6        30.13R
CRYSTAL        PTCLDY    59  40  49 W3        30.11S
BLAINE         PTCLDY    59  43  55 W5        30.12S
LAKEVILLE      MOCLDY    59  43  55 W6        30.14R
EDEN PRAIRIE   MOCLDY    62  44  51 W7        30.13R
SOUTH ST PAUL  PTCLDY    61  40  45 CALM      30.12S
LAKE ELMO      FAIR      55  43  62 CALM      30.13R
$$
MNZ001>005-007-008-013>017-022>024-027-028-260400-
   Northwest Minnesota

CITY           SKY/WX    TMP DP  RH WIND       PRES   REMARKS
BEMIDJI        CLEAR     47  43  85 NW6       30.16R
HALLOCK        CLEAR     54  46  76 NW6       30.19R
ROSEAU         PTCLDY    52  46  82 W5        30.17S
WARROAD        CLEAR     52  46  82 W5        30.17S
THIEF RVR FALL CLEAR     53  45  74 N6        30.20R
CROOKSTON      CLEAR     54  45  71 N5        30.20R
FOSSTON        CLEAR     46  43  87 N3        30.19R
DETROIT LAKES  CLEAR     54  45  71 N3        30.19R
MOORHEAD       CLEAR     57  39  51 N7        30.19R
PARK RAPIDS    CLEAR     51  39  63 NW7       30.16R
MAHNOMEN       FAIR      53  45  74 N3        30.18R
$$
MNZ006-009>011-018-025>026-260400-
   North Central Minnesota

CITY           SKY/WX    TMP DP  RH WIND       PRES   REMARKS
BAUDETTE       CLEAR     50  45  83 CALM      30.14S
FLAG ISLAND    CLEAR     57  46  67 W9        30.14R
INTL FALLS     RAIN      50  47  89 W6        30.13R FOG
WASKISH        CLEAR     46  45  93 CALM      30.16R
BIG FORK       PTCLDY    48  46  93 CALM      30.15R
LONGVILLE      CLEAR     50  45  81 CALM      30.14S
GRAND RAPIDS   CLOUDY    50  48  93 CALM      30.15S
CRANE LAKE     CLOUDY    43  43 100 CALM      30.14R
ORR            CLEAR     45  41  87 CALM      30.11R
COOK           CLEAR     45  45 100 CALM      30.13S
WALKER         FAIR      48  41  77 NW6       30.15S
$$
MNZ012-019>021-037-260400-
   Northeast Minnesota

CITY           SKY/WX    TMP DP  RH WIND       PRES   REMARKS
DULUTH         PTCLDY    48  44  86 NW6       30.10R
ELY            CLOUDY    46  45  93 CALM      30.12R
HIBBING        CLEAR     44  44 100 NW3       30.12R
EVELETH        CLEAR     47  40  75 CALM      30.13R
DULUTH HARBOR  CLEAR     55  46  71 NW6       30.11R
TWO HARBORS    CLEAR     52  46  82 N5        30.07S
SILVER BAY     CLOUDY    50  46  87 CALM      30.07R
GRAND MARAIS     N/A     49  46  90 N12G22    30.03S
G MARAIS ARPRT RAIN      43  39  87 N10       30.06S
$$
MNZ029>031-032-039>041-046>048-054>057-064-260400-
   West Central Minnesota

CITY           SKY/WX    TMP DP  RH WIND       PRES   REMARKS
FERGUS FALLS   MOCLDY    57  43  58 N3        30.15R
WHEATON        PTCLDY    55  50  82 W3        30.20R
MORRIS         CLOUDY    55  52  88 W3        30.17R
ALEXANDRIA     PTCLDY    55  44  66 NW6       30.17S
ELBOW LAKE     DRIZZLE   56  51  82 NW5       30.18R
WADENA         CLEAR     52  41  66 CALM      30.16R
GLENWOOD       PTCLDY    54  46  76 W7        30.17R
APPLETON       CLOUDY    57  48  72 NW3       30.17S
BENSON           N/A     55  50  82 NW5       30.18S
ORTONVILLE     CLOUDY    57  46  67 NW3       30.18R
MADISON        PTCLDY    59  48  67 CALM      30.19R
WILLMAR        FAIR      57  48  72 NW5       30.18F
$$
MNZ033>034-036-042>043-049>051-058-059-260400-
   Central Minnesota

CITY           SKY/WX    TMP DP  RH WIND       PRES   REMARKS
ST CLOUD       PTCLDY    54  43  66 NW7       30.13R
SAUK CENTRE    FAIR      55  45  69 W3        30.16R
PAYNESVILLE    PTCLDY    54  44  67 W6        30.16S
AITKIN         CLEAR     46  43  87 CALM      30.13R
PINE RIVER     PTCLDY    54  45  71 NW3       30.18R
BRAINERD       CLEAR     55  43  63 NW7       30.15R
STAPLES        CLEAR     54  43  66 CALM      30.16R
LONG PRAIRIE   FAIR      54  43  66 W5        30.16R
LITTLE FALLS   CLEAR     55  41  58 CALM      30.16R
LITCHFIELD     MOCLDY    61  50  67 W3        30.16R
BUFFALO        MOCLDY    60  45  56 W6        30.15R
MAPLE LAKE     MOCLDY    60  46  58 W3        30.15R
HUTCHINSON     MOCLDY    58  49  74 W6        30.16S
$$
MNZ037-044-045-052-053-260400-
   East Central Minnesota

CITY           SKY/WX    TMP DP  RH WIND       PRES   REMARKS
PRINCETON      MOCLDY    57  45  62 N5        30.14R
MORA           PTCLDY    52  41  66 NW3       30.15R
CAMBRIDGE      CLEAR     59  45  58 CALM      30.12R
RUSH CITY      CLOUDY    52  43  71 CALM      30.13R
MOOSE LAKE     PTCLDY    48  43  81 CALM      30.11R
HINCKLEY       FAIR      52  45  76 NW3       30.12S
CLOQUET        CLEAR     46  43  87 NW5       30.11R
MCGREGOR       CLEAR     50  45  81 CALM      30.14R
$$
MNZ071>073-080-081-089-090-097-098-260400-
   Southwest Minnesota

CITY           SKY/WX    TMP DP  RH WIND       PRES   REMARKS
MONTEVIDEO     CLOUDY    57  48  72 CALM      30.18S
GRANITE FALLS  CLOUDY    61  50  65 N3        30.19R
CANBY          PTCLDY    56  49  78 CALM      30.20R
MARSHALL       CLOUDY    58  49  72 W6        30.18S
REDWOOD FALLS  PTCLDY    58  47  66 CALM      30.17R
OLIVIA         LGT RAIN  55  48  76 N14       30.17R
PIPESTONE      LGT RAIN  61  46  59 N6        30.18R
WINDOM         PTCLDY    59  46  63 W8        30.19S
WORTHINGTON    CLOUDY    60  45  57 N14       30.20F
JACKSON        MOCLDY    55  46  71 CALM      30.21F
TRACY          CLOUDY    58  50  74 CALM      30.18S
SLAYTON        LGT RAIN  55  51  85 W5        30.20F
$$
MNZ065>067-074>077-082>085-091>093-260400-
   South Central Minnesota

CITY           SKY/WX    TMP DP  RH WIND       PRES   REMARKS
MANKATO        CLOUDY    59  46  62 NW6       30.16F
NEW ULM        PTCLDY    57  46  67 CALM      30.16S
ST JAMES       PTCLDY    57  43  58 W6        30.18S
FAIRMONT       CLOUDY    61  43  51 NW10      30.18S
GLENCOE        PTCLDY    60  48  65 W3        30.15S
FARIBAULT      CLOUDY    61  45  55 W6        30.15S
OWATONNA       MOCLDY    61  45  55 W9        30.16R
WASECA         CLOUDY    59  43  55 NW7       30.17S
ALBERT LEA     PTCLDY    57  41  54 CALM      30.17S
$$
MNZ078>079-086>088-094>096-260400-
   Southeast Minnesota

CITY           SKY/WX    TMP DP  RH WIND       PRES   REMARKS
ROCHESTER      CLOUDY    56  44  64 W8        30.15S
RED WING       CLEAR     55  43  62 CALM      30.11S
STANTON        PTCLDY    59  43  55 W6        30.13R
DODGE CENTER   MOCLDY    57  41  54 W6        30.15S
WINONA         CLEAR     55  46  71 CALM      30.12S
AUSTIN         MOCLDY    59  41  51 CALM      30.16R
PRESTON        CLEAR     53  42  66 W7        30.15S
$$
ABBREVIATIONS USED IN REMARKS
   TC - TEMPERATURES IN CELSIUS
  WCI - WIND CHILL INDEX
   HX - HEAT INDEX
  VSB - VISIBILITY
$$




USA.gov is the U.S. government's official web portal to all federal, state and local government web resources and services.